Content
SEND FEEDBACK

Daily
Averages
Monthly
Summary
Mexico

CANCUN, QUINTANA ROO


Home > North America > Mexico > Quintana Roo
Elevation: 9 meters     Latitude: 21 09N     Longitude: 086 49W

WEATHER
 
SELECT A DAY
Number of Records: 163,931;   Date Range: 1/1/95 - 8/31/14
 
SHARE

PRINT THIS DATA

[ ← Previous Day ]
WEATHER ALMANAC - 12 MARCH, 2014
[ Next Day → ]
[ °F ]   °C
Weather ElementAverageHighLow
Temperature26.2 °C30 °C (10:43 am)23 °C (8:40 pm)
Dewpoint23.2 °C24 °C (12:40 pm)22 °C (10:47 pm)
Humidity83.9 %100 % (8:40 pm)66 % (10:43 am)
Barometer1010.8 hPa1013.9 hPa (9:42 pm)1007.8 hPa (2:48 am)
Wind Speed15.3 km/h29.6 km/h (3:44 pm)
Wind Gust37 km/h (10:43 am)
Weather ElementAverage
Visibility10.5 km
Wind DirectionSSW (192.1 °)

Weather ElementTotal
Precipitation---
Cooling Degree Days8.2 (Base 18.3)
Growing Degree Days16.5 (Base 10)
Averaged from 24 records on 12 March, 2014
WEATHER CONDITIONS BREAKOUT
WIND DIRECTION BREAKOUT
WEATHER BY HOUR - 12 MARCH, 2014
[ °F ]   °C
Local TimeTemperatureDewpointHumidityBarometerVisibilityWind DirectionWind SpeedGust SpeedPrecipitationEventsConditions
1:44 AM25 °C23 °C89 %1009.5 hPa11.3 kmSSE (150°)11.1 km/hClear
2:48 AM25 °C23 °C89 %1007.8 hPa11.3 kmSE (140°)13 km/hClear
3:47 AM25 °C23 °C89 %1009.1 hPa11.3 kmSSE (150°)14.8 km/hClear
4:46 AM25 °C23 °C89 %1009.8 hPa11.3 kmSSE (160°)13 km/hPartly Cloudy
5:46 AM26 °C23 °C83 %1008.8 hPa11.3 kmSouth (170°)13 km/hScattered Clouds
6:45 AM26 °C23 °C83 %1011.2 hPa11.3 kmSouth (180°)9.3 km/hScattered Clouds
7:46 AM26 °C23 °C83 %1011.9 hPa11.3 kmSSW (200°)11.1 km/hScattered Clouds
8:42 AM28 °C23 °C74 %1011.9 hPa11.3 kmSouth (170°)24.1 km/hMostly Cloudy
9:40 AM28 °C23 °C74 %1012.5 hPa11.3 kmSouth (180°)18.5 km/hMostly Cloudy
10:43 AM30 °C23 °C66 %1012.5 hPa11.3 kmSSE (160°)16.7 km/h37 km/hScattered Clouds
11:42 AM29 °C23 °C70 %1011.5 hPa11.3 kmSE (140°)18.5 km/hScattered Clouds
12:40 PM29 °C24 °C74 %1011.5 hPa11.3 kmSE (140°)24.1 km/hScattered Clouds
1:47 PM29 °C24 °C74 %1010.2 hPa11.3 kmSouth (180°)27.8 km/hScattered Clouds
2:44 PM29 °C24 °C74 %1009.1 hPa11.3 kmSSE (150°)27.8 km/hMostly Cloudy
3:44 PM29 °C24 °C74 %1008.5 hPa11.3 kmSSE (150°)29.6 km/hScattered Clouds
4:40 PM28 °C24 °C79 %1009.5 hPa11.3 kmSSE (150°)24.1 km/hMostly Cloudy
5:14 PM27 °C24 °C84 %1011.2 hPa8 kmWSW (250°)5.6 km/hThunderstormThunderstorm
5:41 PM24 °C23 °C94 %1011.2 hPa4.8 kmSW (230°)13 km/hRain-ThunderstormThunderstorms and Rain
6:44 PM25 °C23 °C89 %1011.2 hPa9.7 kmSouth (180°)13 km/hMostly Cloudy
7:42 PM24 °C23 °C94 %1012.5 hPa9.7 kmWest (260°)3.7 km/hMostly Cloudy
8:40 PM23 °C23 °C100 %1012.5 hPa9.7 kmWNW (290°)11.1 km/hMostly Cloudy
9:42 PM23 °C23 °C100 %1013.9 hPa9.7 kmWest (280°)5.6 km/hMostly Cloudy
10:47 PM23 °C22 °C94 %1013.5 hPa9.7 kmWSW (250°)7.4 km/hMostly Cloudy
11:49 PM23 °C22 °C94 %1012.5 hPa9.7 kmWNW (300°)9.3 km/hMostly Cloudy
Hourly data recorded from MMUN, located 0 kilometers away from Cancun, Quintana Roo







STORIES FROM OUR PARTNERS